TimePDT,TemperatureF,Dew PointF,Humidity,Sea Level PressureIn,VisibilityMPH,Wind Direction,Wind SpeedMPH,Gust SpeedMPH,PrecipitationIn,Events,Conditions,WindDirDegrees,DateUTC
12:55 AM,70.5,20.7,15,29.96,10.0,West,13.8,19.6,N/A,,Clear,270,2014-04-09 07:55:00
1:55 AM,69.4,25.9,20,29.96,10.0,West,9.2,-,N/A,,Clear,270,2014-04-09 08:55:00
2:55 AM,69.4,26.8,20,29.94,10.0,West,5.8,-,N/A,,Clear,260,2014-04-09 09:55:00
3:55 AM,67.3,29.3,24,29.92,10.0,West,13.8,-,N/A,,Clear,270,2014-04-09 10:55:00
4:55 AM,67.3,29.5,24,29.93,10.0,West,10.4,-,N/A,,Clear,270,2014-04-09 11:55:00
5:55 AM,66.7,27.9,23,29.94,10.0,West,11.5,-,N/A,,Clear,260,2014-04-09 12:55:00
6:55 AM,65.8,29.1,25,29.96,10.0,West,11.5,-,N/A,,Clear,270,2014-04-09 13:55:00
7:55 AM,67.6,28.9,24,29.97,10.0,WNW,5.8,-,N/A,,Clear,290,2014-04-09 14:55:00
8:55 AM,72.3,28.9,20,29.96,10.0,Calm,Calm,-,N/A,,Clear,0,2014-04-09 15:55:00
9:55 AM,73.6,25.5,17,29.97,10.0,SW,6.9,-,N/A,,Clear,220,2014-04-09 16:55:00
10:55 AM,77.9,21.0,12,29.98,10.0,SSE,4.6,-,N/A,,Clear,150,2014-04-09 17:55:00
11:55 AM,80.6,15.3,9,29.96,10.0,SSW,13.8,19.6,N/A,,Clear,210,2014-04-09 18:55:00
12:55 PM,82.9,5.0,5,29.93,10.0,WSW,17.3,26.5,N/A,,Clear,250,2014-04-09 19:55:00
1:55 PM,84.2,5.9,5,29.91,10.0,SW,21.9,27.6,N/A,,Clear,230,2014-04-09 20:55:00
2:55 PM,85.5,6.8,5,29.88,10.0,SW,19.6,28.8,N/A,,Clear,230,2014-04-09 21:55:00
3:55 PM,87.3,-9999,N/A,29.85,10.0,SW,23.0,34.5,N/A,,Clear,230,2014-04-09 22:55:00
4:55 PM,86.7,-9999,N/A,29.84,10.0,WSW,21.9,33.4,N/A,,Clear,240,2014-04-09 23:55:00
5:55 PM,86.0,-9999,N/A,29.83,10.0,WSW,23.0,32.2,N/A,,Clear,250,2014-04-10 00:55:00
6:55 PM,83.7,5.5,5,29.84,10.0,WSW,16.1,25.3,N/A,,Clear,250,2014-04-10 01:55:00
7:55 PM,79.5,7.7,6,29.84,10.0,WSW,19.6,26.5,N/A,,Partly Cloudy,250,2014-04-10 02:55:00
8:55 PM,78.1,5.0,6,29.85,10.0,West,18.4,28.8,N/A,,Mostly Cloudy,260,2014-04-10 03:55:00
9:55 PM,74.3,8.8,8,29.87,10.0,SSW,5.8,-,N/A,,Mostly Cloudy,210,2014-04-10 04:55:00
10:55 PM,75.0,11.8,9,29.86,10.0,WSW,12.7,18.4,N/A,,Scattered Clouds,250,2014-04-10 05:55:00
11:55 PM,72.3,11.7,10,29.87,10.0,West,10.4,13.8,N/A,,Partly Cloudy,270,2014-04-10 06:55:00